KQA601 HKKI-HKJK

Flight info

Callsign KQA601
Flight time 0h 38m
Altitude 23000
Route IBSUL1A IBSUL DCT NAKAT NAKAT4A
Aircraft B738/M-SDE1E2E3FGHIJ2J3J4J5M1RWXYZ/LB1D1

Departure

Time 2026-04-20 18:31
Airport Kisumu International Airport (HKKI)

Arrival

Time 2026-04-20 19:10
Airport Jomo Kenyatta International Airport (HKJK)
Time Latitude Longitude Altitude Speed Heading
2026-04-20 18:19 -0.08294 34.72922 3779 ft 0 kts 65°
2026-04-20 18:27 -0.08293 34.72924 3776 ft 1 kts 65°
2026-04-20 18:27 -0.08288 34.72936 3786 ft 4 kts 66°
2026-04-20 18:28 -0.08324 34.72995 3776 ft 16 kts 147°
2026-04-20 18:28 -0.08412 34.73044 3777 ft 13 kts 151°
2026-04-20 18:28 -0.08467 34.73102 3787 ft 12 kts 93°
2026-04-20 18:28 -0.08438 34.73174 3783 ft 11 kts 61°
2026-04-20 18:29 -0.08404 34.73236 3780 ft 4 kts 64°
2026-04-20 18:29 -0.08390 34.73263 3781 ft 8 kts 62°
2026-04-20 18:29 -0.08340 34.73356 3778 ft 22 kts 62°
2026-04-20 18:29 -0.08257 34.73510 3781 ft 24 kts 62°
2026-04-20 18:30 -0.08145 34.73616 3777 ft 20 kts 27°
2026-04-20 18:30 -0.08151 34.73668 3776 ft 9 kts 176°
2026-04-20 18:30 -0.08194 34.73626 3779 ft 11 kts 240°
2026-04-20 18:30 -0.08342 34.73352 3778 ft 79 kts 240°
2026-04-20 18:31 -0.08706 34.72681 3781 ft 139 kts 242°
2026-04-20 18:31 -0.09243 34.71693 3782 ft 188 kts 241°
2026-04-20 18:31 -0.09874 34.70462 4335 ft 197 kts 244°
2026-04-20 18:31 -0.10243 34.69187 5264 ft 187 kts 271°
2026-04-20 18:32 -0.10115 34.67892 5859 ft 195 kts 263°
2026-04-20 18:32 -0.10744 34.66664 6049 ft 216 kts 219°
2026-04-20 18:32 -0.12201 34.66131 6218 ft 234 kts 178°
2026-04-20 18:32 -0.13764 34.66691 6371 ft 251 kts 140°
2026-04-20 18:33 -0.15034 34.67928 6716 ft 258 kts 137°
2026-04-20 18:33 -0.16384 34.69081 7120 ft 259 kts 140°
2026-04-20 18:33 -0.17789 34.70201 7590 ft 260 kts 141°
2026-04-20 18:33 -0.19240 34.71323 8068 ft 261 kts 141°
2026-04-20 18:34 -0.20672 34.72410 8515 ft 262 kts 142°
2026-04-20 18:34 -0.22135 34.73510 8980 ft 264 kts 142°
2026-04-20 18:34 -0.23607 34.74608 9457 ft 265 kts 142°
2026-04-20 18:34 -0.25088 34.75709 9900 ft 267 kts 142°
2026-04-20 18:35 -0.26586 34.76819 10311 ft 270 kts 142°
2026-04-20 18:35 -0.28144 34.77972 10455 ft 288 kts 142°
2026-04-20 18:35 -0.29813 34.79207 10566 ft 311 kts 142°
2026-04-20 18:35 -0.31615 34.80538 10758 ft 331 kts 142°
2026-04-20 18:36 -0.33501 34.81929 11155 ft 341 kts 142°
2026-04-20 18:36 -0.35419 34.83342 11737 ft 345 kts 142°
2026-04-20 18:36 -0.37364 34.84775 12384 ft 347 kts 142°
2026-04-20 18:36 -0.39312 34.86210 13077 ft 349 kts 142°
2026-04-20 18:37 -0.41274 34.87657 13729 ft 352 kts 142°
2026-04-20 18:37 -0.43214 34.89134 14286 ft 355 kts 137°
2026-04-20 18:37 -0.44965 34.90909 14872 ft 357 kts 129°
2026-04-20 18:37 -0.46574 34.92801 15473 ft 359 kts 128°
2026-04-20 18:38 -0.48186 34.94737 16069 ft 362 kts 128°
2026-04-20 18:38 -0.49802 34.96682 16652 ft 365 kts 128°
2026-04-20 18:38 -0.51434 34.98637 17217 ft 369 kts 128°
2026-04-20 18:38 -0.53088 35.00610 17793 ft 372 kts 128°
2026-04-20 18:39 -0.54759 35.02594 18333 ft 375 kts 128°
2026-04-20 18:39 -0.56450 35.04599 18789 ft 379 kts 128°
2026-04-20 18:39 -0.58155 35.06617 18990 ft 382 kts 128°
2026-04-20 18:39 -0.59881 35.08658 19016 ft 387 kts 128°
2026-04-20 18:40 -0.61627 35.10722 19024 ft 390 kts 128°
2026-04-20 18:40 -0.63373 35.12784 19023 ft 388 kts 128°
2026-04-20 18:40 -0.65116 35.14844 19032 ft 387 kts 128°
2026-04-20 18:40 -0.66851 35.16893 19041 ft 386 kts 128°
2026-04-20 18:41 -0.68578 35.18935 19046 ft 386 kts 128°
2026-04-20 18:41 -0.70290 35.20959 19048 ft 386 kts 128°
2026-04-20 18:41 -0.72022 35.23007 19041 ft 386 kts 128°
2026-04-20 18:41 -0.73753 35.25054 19049 ft 386 kts 128°
2026-04-20 18:42 -0.75489 35.27107 19052 ft 387 kts 128°
2026-04-20 18:42 -0.77222 35.29156 19059 ft 387 kts 128°
2026-04-20 18:42 -0.78958 35.31209 19056 ft 387 kts 128°
2026-04-20 18:42 -0.80700 35.33269 19056 ft 387 kts 128°
2026-04-20 18:43 -0.82439 35.35324 19062 ft 387 kts 128°
2026-04-20 18:43 -0.84082 35.37443 19054 ft 386 kts 120°
2026-04-20 18:43 -0.85369 35.39783 19072 ft 384 kts 116°
2026-04-20 18:43 -0.86571 35.42176 19066 ft 385 kts 115°
2026-04-20 18:44 -0.87749 35.44573 19064 ft 385 kts 115°
2026-04-20 18:44 -0.88929 35.46967 19072 ft 385 kts 115°
2026-04-20 18:44 -0.90122 35.49363 19074 ft 385 kts 115°
2026-04-20 18:44 -0.91325 35.51754 19079 ft 385 kts 115°
2026-04-20 18:45 -0.92535 35.54141 19074 ft 385 kts 116°
2026-04-20 18:45 -0.93748 35.56524 19084 ft 385 kts 116°
2026-04-20 18:45 -0.94964 35.58906 19086 ft 385 kts 116°
2026-04-20 18:45 -0.96183 35.61290 19084 ft 385 kts 116°
2026-04-20 18:46 -0.97398 35.63666 19092 ft 385 kts 116°
2026-04-20 18:46 -0.98618 35.66051 19094 ft 385 kts 116°
2026-04-20 18:46 -0.99838 35.68436 19092 ft 385 kts 116°
2026-04-20 18:46 -1.01056 35.70819 19097 ft 385 kts 116°
2026-04-20 18:47 -1.02274 35.73199 19099 ft 385 kts 116°
2026-04-20 18:47 -1.03494 35.75584 19106 ft 385 kts 116°
2026-04-20 18:47 -1.04713 35.77968 19104 ft 385 kts 116°
2026-04-20 18:47 -1.05934 35.80356 19104 ft 385 kts 116°
2026-04-20 18:48 -1.07152 35.82739 19106 ft 385 kts 116°
2026-04-20 18:48 -1.08369 35.85117 19113 ft 385 kts 116°
2026-04-20 18:48 -1.09592 35.87509 19108 ft 385 kts 116°
2026-04-20 18:48 -1.10810 35.89891 19105 ft 385 kts 116°
2026-04-20 18:49 -1.12030 35.92277 19117 ft 385 kts 116°
2026-04-20 18:49 -1.13230 35.94625 19113 ft 385 kts 116°
2026-04-20 18:49 -1.14464 35.97038 19113 ft 385 kts 116°
2026-04-20 18:49 -1.15683 35.99423 19109 ft 385 kts 116°
2026-04-20 18:50 -1.16883 36.01770 19109 ft 384 kts 116°
2026-04-20 18:50 -1.18098 36.04147 19104 ft 384 kts 116°
2026-04-20 18:50 -1.19323 36.06542 19107 ft 379 kts 116°
2026-04-20 18:50 -1.20501 36.08844 19104 ft 363 kts 116°
2026-04-20 18:51 -1.21632 36.11054 19096 ft 354 kts 116°
2026-04-20 18:51 -1.22731 36.13205 19100 ft 352 kts 115°
2026-04-20 18:51 -1.23845 36.15386 19109 ft 353 kts 115°
2026-04-20 18:51 -1.24960 36.17569 19110 ft 353 kts 115°
2026-04-20 18:52 -1.26060 36.19721 19090 ft 342 kts 115°
2026-04-20 18:52 -1.27121 36.21795 19088 ft 328 kts 115°
2026-04-20 18:52 -1.28139 36.23784 19075 ft 314 kts 115°
2026-04-20 18:52 -1.29110 36.25684 19088 ft 300 kts 115°
2026-04-20 18:53 -1.30042 36.27507 19075 ft 288 kts 115°
2026-04-20 18:53 -1.30930 36.29246 19073 ft 276 kts 115°
2026-04-20 18:53 -1.31783 36.30916 19080 ft 263 kts 115°
2026-04-20 18:53 -1.32600 36.32516 19076 ft 254 kts 115°
2026-04-20 18:54 -1.33402 36.34087 19096 ft 256 kts 115°
2026-04-20 18:54 -1.34226 36.35701 19106 ft 264 kts 115°
2026-04-20 18:54 -1.35070 36.37359 19117 ft 269 kts 114°
2026-04-20 18:54 -1.35793 36.39070 19100 ft 266 kts 109°
2026-04-20 18:55 -1.36422 36.40797 19100 ft 263 kts 108°
2026-04-20 18:55 -1.37030 36.42512 19100 ft 261 kts 108°
2026-04-20 18:55 -1.37638 36.44217 19101 ft 260 kts 108°
2026-04-20 18:55 -1.38246 36.45911 19102 ft 259 kts 108°
2026-04-20 18:56 -1.38856 36.47597 19114 ft 258 kts 108°
2026-04-20 18:56 -1.39469 36.49284 19124 ft 258 kts 109°
2026-04-20 18:56 -1.39878 36.50404 19136 ft 259 kts 109°
2026-04-20 18:56 -1.40497 36.52099 19149 ft 260 kts 109°
2026-04-20 18:57 -1.41120 36.53802 19150 ft 263 kts 109°
2026-04-20 18:57 -1.41751 36.55524 19162 ft 265 kts 109°
2026-04-20 18:57 -1.42593 36.57820 19057 ft 262 kts 109°
2026-04-20 18:57 -1.43008 36.58949 18925 ft 261 kts 109°
2026-04-20 18:58 -1.43633 36.60654 18643 ft 261 kts 109°
2026-04-20 18:58 -1.44260 36.62362 18331 ft 262 kts 109°
2026-04-20 18:58 -1.44889 36.64073 17992 ft 262 kts 109°
2026-04-20 18:58 -1.45514 36.65776 17756 ft 260 kts 109°
2026-04-20 18:59 -1.46132 36.67459 17463 ft 256 kts 109°
2026-04-20 18:59 -1.46747 36.69133 17016 ft 257 kts 109°
2026-04-20 18:59 -1.47356 36.70806 16536 ft 256 kts 107°
2026-04-20 18:59 -1.47513 36.72562 16028 ft 256 kts 81°
2026-04-20 19:00 -1.46860 36.74198 15553 ft 256 kts 57°
2026-04-20 19:00 -1.45550 36.75410 15027 ft 261 kts 32°
2026-04-20 19:00 -1.43818 36.75930 14536 ft 265 kts
2026-04-20 19:00 -1.41978 36.75992 14080 ft 263 kts
2026-04-20 19:01 -1.40184 36.76249 13538 ft 258 kts 21°
2026-04-20 19:01 -1.38633 36.77071 13044 ft 250 kts 42°
2026-04-20 19:01 -1.37499 36.78349 12554 ft 243 kts 61°
2026-04-20 19:01 -1.36913 36.79908 12051 ft 239 kts 84°
2026-04-20 19:02 -1.37257 36.81490 11566 ft 237 kts 118°
2026-04-20 19:02 -1.38261 36.82797 11100 ft 238 kts 131°
2026-04-20 19:02 -1.39469 36.83933 10611 ft 238 kts 136°
2026-04-20 19:02 -1.40751 36.84973 10160 ft 237 kts 139°
2026-04-20 19:03 -1.42061 36.85966 9667 ft 235 kts 140°
2026-04-20 19:03 -1.43373 36.86936 9177 ft 234 kts 140°
2026-04-20 19:03 -1.44677 36.87889 8654 ft 232 kts 140°
2026-04-20 19:03 -1.46123 36.88610 8147 ft 237 kts 163°
2026-04-20 19:04 -1.47750 36.88702 7693 ft 241 kts 184°
2026-04-20 19:04 -1.49296 36.88031 7513 ft 251 kts 216°
2026-04-20 19:04 -1.50361 36.86657 7495 ft 252 kts 246°
2026-04-20 19:04 -1.50620 36.84922 7485 ft 249 kts 278°
2026-04-20 19:05 -1.50031 36.83374 7488 ft 240 kts 306°
2026-04-20 19:05 -1.48948 36.82108 7490 ft 239 kts 317°
2026-04-20 19:05 -1.47766 36.80943 7485 ft 239 kts 319°
2026-04-20 19:05 -1.46581 36.79784 7484 ft 238 kts 318°
2026-04-20 19:06 -1.45317 36.78745 7475 ft 232 kts 338°
2026-04-20 19:06 -1.43794 36.78548 7492 ft 218 kts 19°
2026-04-20 19:06 -1.42524 36.79276 7514 ft 211 kts 41°
2026-04-20 19:06 -1.41364 36.80236 7514 ft 219 kts 46°
2026-04-20 19:07 -1.40322 36.81322 7509 ft 213 kts 51°
2026-04-20 19:07 -1.39401 36.82465 7495 ft 210 kts 56°
2026-04-20 19:07 -1.38530 36.83660 7318 ft 216 kts 56°
2026-04-20 19:07 -1.37646 36.84883 7085 ft 213 kts 56°
2026-04-20 19:08 -1.36797 36.86053 6802 ft 200 kts 54°
2026-04-20 19:08 -1.35333 36.88068 6250 ft 159 kts 56°
2026-04-20 19:08 -1.34720 36.88915 6070 ft 150 kts 54°
2026-04-20 19:09 -1.34116 36.89744 5852 ft 145 kts 54°
2026-04-20 19:09 -1.33525 36.90556 5676 ft 147 kts 53°
2026-04-20 19:09 -1.32921 36.91404 5455 ft 150 kts 51°
2026-04-20 19:09 -1.32322 36.92239 5340 ft 141 kts 52°
2026-04-20 19:10 -1.31813 36.92927 5311 ft 88 kts 55°
2026-04-20 19:10 -1.31653 36.93150 5305 ft 28 kts 54°
2026-04-20 19:10 -1.31567 36.93288 5305 ft 18 kts 84°
2026-04-20 19:10 -1.31635 36.93379 5302 ft 17 kts 144°
2026-04-20 19:11 -1.31709 36.93432 5302 ft 12 kts 144°
2026-04-20 19:11 -1.31779 36.93477 5306 ft 12 kts 163°
2026-04-20 19:11 -1.31847 36.93442 5307 ft 12 kts 232°
2026-04-20 19:11 -1.31894 36.93377 5305 ft 11 kts 234°
2026-04-20 19:12 -1.31940 36.93315 5313 ft 11 kts 233°
2026-04-20 19:12 -1.31985 36.93254 5314 ft 11 kts 233°
2026-04-20 19:12 -1.32028 36.93195 5313 ft 10 kts 233°
2026-04-20 19:12 -1.32070 36.93138 5314 ft 10 kts 233°
2026-04-20 19:13 -1.32110 36.93083 5310 ft 10 kts 234°
2026-04-20 19:13 -1.32149 36.93028 5319 ft 10 kts 234°
2026-04-20 19:13 -1.32188 36.92975 5312 ft 9 kts 234°
2026-04-20 19:13 -1.32225 36.92924 5318 ft 9 kts 233°
2026-04-20 19:14 -1.32262 36.92874 5313 ft 9 kts 234°
2026-04-20 19:14 -1.32297 36.92825 5320 ft 9 kts 233°
2026-04-20 19:14 -1.32332 36.92778 5317 ft 8 kts 233°
2026-04-20 19:14 -1.32366 36.92733 5320 ft 8 kts 234°
2026-04-20 19:15 -1.32398 36.92688 5321 ft 8 kts 234°
2026-04-20 19:15 -1.32431 36.92643 5321 ft 8 kts 233°
2026-04-20 19:15 -1.32469 36.92592 5321 ft 10 kts 233°
2026-04-20 19:15 -1.32512 36.92533 5323 ft 11 kts 233°
2026-04-20 19:16 -1.32558 36.92471 5323 ft 11 kts 233°
2026-04-20 19:16 -1.32602 36.92410 5321 ft 11 kts 234°
2026-04-20 19:16 -1.32653 36.92355 5324 ft 11 kts 203°
2026-04-20 19:16 -1.32722 36.92378 5322 ft 11 kts 146°
2026-04-20 19:17 -1.32792 36.92373 5315 ft 11 kts 221°
2026-04-20 19:17 -1.32838 36.92313 5314 ft 11 kts 226°
2026-04-20 19:17 -1.32899 36.92261 5321 ft 12 kts 210°
2026-04-20 19:17 -1.32955 36.92229 5319 ft 6 kts 243°
2026-04-20 19:18 -1.32948 36.92187 5319 ft 7 kts 284°
2026-04-20 19:18 -1.32941 36.92160 5319 ft 0 kts 285°